Regional Weather Roundup
Issued by NWS

Home | Current Version | Previous Version | Graphics & Text | Print | Product List | Glossary On
Versions: 1 2 3 4 5 6 7 8 9 10 11 12 13 14 15 16 17 18 19 20 21 22 23 24 25 26 27 28 29 30 31 32 33 34 35 36 37 38 39 40 41 42 43 44 45 46 47 48 49 50
704
ASUS43 KMKX 201910
RWRWI

WISCONSIN REGIONAL WEATHER ROUNDUP
NATIONAL WEATHER SERVICE MILWAUKEE/SULLIVAN WI
200 PM CDT FRI APR 20 2018

NOTE: "FAIR" INDICATES FEW OR NO CLOUDS BELOW 12,000 FEET WITH NO
SIGNIFICANT WEATHER AND/OR OBSTRUCTIONS TO VISIBILITY.

WIZ001-002-006>008-014>016-023>028-202000-
NORTHWEST WISCONSIN

CITY           SKY/WX    TMP DP  RH WIND       PRES   REMARKS
SUPERIOR ARPT  FAIR      57  24  27 CALM      30.42F
ASHLAND        FAIR      57  14  18 CALM      30.43F
HAYWARD        FAIR      52  19  27 S5        30.44F
SIREN          FAIR      52  22  31 W8        30.45F
CUMBERLAND     FAIR      45  19  36 CALM      30.45F
RICE LAKE      FAIR      49  21  32 SW3       30.48S
CHETEK         FAIR      52  21  29 SW3       30.46S
LADYSMITH      FAIR      53  23  31 S6        30.47S
EAU CLAIRE     FAIR      52  19  27 S7        30.46F
MENOMONIE      FAIR      53  22  29 SE6       30.48S
NEW RICHMOND   FAIR      50  19  29 S5        30.47F
OSCEOLA        FAIR      52  24  33 S7        30.49F
$$

WIZ003>005-009-010-017-018-202000-
NORTH CENTRAL WISCONSIN

CITY           SKY/WX    TMP DP  RH WIND       PRES   REMARKS
MANITOWISH WTR FAIR      52  13  20 W8        30.42F
ARBOR VITAE    FAIR      55  11  17 W7        30.42F
WOODRUFF       FAIR      55  11  17 W7        30.42F
RHINELANDER    FAIR      53  12  19 SW5       30.43F
EAGLE RIVER    FAIR      53   6  15 W5        30.42S
LAND O LAKES   FAIR      54  10  17 N5        30.43S
PHILLIPS       FAIR      52  13  21 SW7       30.43F
TOMAHAWK       FAIR      54  12  19 W3        30.43F
MEDFORD        FAIR      47  20  34 S8        30.46S
MERRILL          N/A     53  15  21 SW8       30.46S
$$

WIZ029-030-035-036-043>047-202000-
CENTRAL WISCONSIN

CITY           SKY/WX    TMP DP  RH WIND       PRES   REMARKS
WAUSAU         FAIR      50  13  22 W7        30.44F
MOSINEE        PTSUNNY   52  16  24 W6        30.47F
MARSHFIELD     FAIR      50  19  29 NW5       30.46F
STEVENS POINT  FAIR      50  13  22 SW3       30.47F
WAUPACA        FAIR      56  14  19 E7        30.46F
WAUTOMA        FAIR      53  15  22 NW5       30.47F
WISC RAPIDS    FAIR      52  13  21 SW7       30.48F
CAMP DOUGLAS   MOSUNNY   52  14  22 CALM      30.48S
$$

WIZ011>013-019>022-031-037>040-048>050-202000-
NORTHEAST WISCONSIN

CITY           SKY/WX    TMP DP  RH WIND       PRES   REMARKS
ANTIGO         FAIR      49  16  26 SW5       30.45S
SHAWANO        FAIR      58  10  14 SW3       30.45F
OCONTO         FAIR      50  15  24 SE10      30.46F
STURGEON BAY   FAIR      51  15  23 S7        30.48F
GREEN BAY      FAIR      49  22  34 S6        30.49S
MANITOWOC      FAIR      48  18  30 S9        30.50S
APPLETON       PTSUNNY   52  12  20 SW5       30.47S
CLINTONVILLE   FAIR      53  11  18 S7        30.47S
OSHKOSH        FAIR      47  26  44 SW6       30.48F
$$

WIZ032>034-041-042-053>061-202000-
SOUTHWEST WISCONSIN

CITY           SKY/WX    TMP DP  RH WIND       PRES   REMARKS
LA CROSSE      FAIR      55  21  26 SW8       30.48F
SPARTA         FAIR      53  17  24 S7        30.49S
VIROQUA        FAIR      49  22  34 S5        30.48F
BOSCOBEL       FAIR      57  24  28 VRB3      30.48F
PRAIRIE DU CHI FAIR      54  23  30 CALM      30.48F
PLATTEVILLE    FAIR      55  30  38 S9        30.48F
$$

WIZ056-057-062-063-064-067-068-202000-
SOUTH CENTRAL WISCONSIN

CITY           SKY/WX    TMP DP  RH WIND       PRES   REMARKS
REEDSBURG      FAIR      51  18  26 SW5       30.49R
BARABOO/DELLS  FAIR      53   9  17 CALM      30.48R
LONE ROCK      FAIR      57  21  24 VRB6      30.48F
MINERAL POINT  FAIR      57  21  24 CALM      30.48S
MADISON        PTSUNNY   54  18  24 VRB6      30.48F
MIDDLETON      FAIR      57  22  26 NW3       30.48F
WATERTOWN      FAIR      51  21  31 CALM      30.48F
MONROE         FAIR      55  19  24 SW10      30.47S
JANESVILLE     MOSUNNY   61  12  15 VRB3      30.47F
$$

WIZ051-052-058>065-066-070>072-202000-
SOUTHEAST WISCONSIN

CITY           SKY/WX    TMP DP  RH WIND       PRES   REMARKS
MILWAUKEE      PTSUNNY   51  29  42 SE7       30.50F
WAUKESHA       SUNNY     52  16  24 CALM      30.50F
MILWAUKEE/TIMM SUNNY     54  16  22 S3        30.50F
RACINE         FAIR      52  28  39 SE10      30.51F
BURLINGTON     FAIR      56  20  24 W5        30.49S
KENOSHA        FAIR      56  30  37 VRB7      30.49F
FOND DU LAC    FAIR      47  22  37 S6        30.48F
SHEBOYGAN      FAIR      51  27  39 S8        30.49S
WEST BEND      FAIR      52  21  30 S3        30.48S
JUNEAU         FAIR      47  22  38 CALM      30.50S
$$

LSZ147-162-202000-
LAKE SUPERIOR

STATION/POSITION TIME  TEMP    WIND        PRES    WAVE
                       AIR SEA DIR/SP/G            HT/PER
                 (UTC) (F)     (DEG/KT/KT) (MB)    (FT/S)
DEVILS ISLAND    1900   46     110/  3/  3 1031.1F
SAXON HARBOR     1830   44      30/  2/  4 1030.1F
$$

LMZ867-665-643>646-202000-
LAKE MICHIGAN

STATION/POSITION TIME  TEMP    WIND        PRES    WAVE
                       AIR SEA DIR/SP/G            HT/PER
                 (UTC) (F)     (DEG/KT/KT) (MB)    (FT/S)
NORTHPORT PIER   1840   41                 1031.2F
KEWAUNEE LAKESHO 1842   42     180/ 10/ 12 1031.6F
SHEBOYGAN LAKESH 1900   38     150/ 11/ 11 1033.3S
PORT WASHINGTON  1840   44     160/  3/  4 1033.9S
MILWAUKEE LAKESH 1850   40      70/  3/  3   N/A
KENOSHA   LAKESH 1900   44                 1032.5
$$

TC  - TEMPERATURE IN CELSIUS
VSB - VISIBILITY IN STATUTE MILES
WCI - WIND CHILL INDEX
HX  - HEAT INDEX





USA.gov is the U.S. government's official web portal to all federal, state and local government web resources and services.